Location: Frankfurt am Main
(50.1109°N, 8.6821°E)
Time: 11:02:16
(UTC+02:00)

ISS - Visible Passes

Search period start: 15 May 2021 00:00
Search period end: 25 May 2021 00:00
Orbit: 417 x 422 km, 51.6° (Epoch: 15 May)

Date Brightness Start Highest point End Pass type
(mag) Time Alt. Az. Time Alt. Az. Time Alt. Az.
15 May -3.8 00:27:16 10° WSW 00:30:39 85° NNW 00:34:02 10° ENE visible
15 May -3.5 02:04:14 10° WNW 02:07:37 67° N 02:10:59 10° E visible
15 May -3.7 03:41:06 10° WNW 03:44:26 55° SSW 03:47:44 10° SE visible
15 May -2.4 22:04:12 10° SSW 22:06:46 20° SE 22:09:20 10° E visible
15 May -3.9 23:39:50 10° WSW 23:43:12 77° SSE 23:46:35 10° ENE visible
16 May -3.4 01:16:45 10° W 01:20:07 65° N 01:23:29 10° E visible
16 May -3.9 02:53:38 10° WNW 02:57:01 74° SSW 03:00:23 10° ESE visible
16 May -2.3 04:30:56 10° W 04:33:26 19° SW 04:35:54 10° S visible
16 May -3.8 22:52:28 10° SW 22:55:46 58° SSE 22:59:06 10° ENE visible
17 May -3.4 00:29:15 10° W 00:32:37 66° N 00:35:59 10° E visible
17 May -3.9 02:06:11 10° WNW 02:09:34 88° NNE 02:12:57 10° ESE visible
17 May -2.9 03:43:12 10° W 03:46:08 27° SW 03:49:03 10° SSE visible
17 May -3.4 22:05:12 10° SW 22:08:24 41° SSE 22:11:36 10° E visible
17 May -3.6 23:41:45 10° W 23:45:07 73° N 23:48:30 10° ENE visible
18 May -3.7 01:18:42 10° WNW 01:22:05 75° N 01:22:53 48° E visible
18 May -1.2 02:55:36 10° W 02:55:46 11° W 02:55:46 11° W visible
18 May -3.8 22:54:15 10° WSW 22:57:38 85° NNW 23:01:01 10° ENE visible
19 May -3.5 00:31:13 10° WNW 00:34:35 67° N 00:36:27 24° E visible
19 May -1.9 02:08:05 10° WNW 02:09:22 21° W 02:09:22 21° W visible
19 May -3.8 22:06:48 10° WSW 22:10:10 77° SSE 22:13:33 10° ENE visible
19 May -3.4 23:43:43 10° W 23:47:04 65° N 23:50:16 11° E visible
20 May -3.3 01:20:36 10° WNW 01:23:12 49° W 01:23:12 49° W visible
20 May -3.4 22:56:12 10° W 22:59:33 66° N 23:02:55 10° E visible
21 May -3.9 00:33:07 10° WNW 00:36:30 89° NNE 00:37:05 59° ESE visible
21 May -3.5 22:08:40 10° W 22:12:02 73° N 22:15:25 10° ENE visible
21 May -3.6 23:45:38 10° WNW 23:49:00 75° N 23:51:02 22° E visible
22 May -1.9 01:22:32 10° W 01:23:58 21° W 01:23:58 21° W visible
22 May -3.4 22:58:07 10° WNW 23:01:30 67° N 23:04:51 10° E visible
23 May -3.5 00:35:00 10° WNW 00:37:57 50° SW 00:37:57 50° SW visible
23 May -3.3 22:10:36 10° W 22:13:58 65° N 22:17:20 10° E visible
23 May -3.9 23:47:29 10° WNW 23:50:52 73° SSW 23:51:57 39° SE visible
24 May -1.0 01:24:49 10° W 01:24:53 10° W 01:24:53 10° W visible
24 May -3.8 23:00:00 10° WNW 23:03:22 89° N 23:05:58 16° ESE visible
